Tracking 19847 objects as of 17-Sep-2019
HD Live streaming from Space Station
objects crossing your sky now

METEOR 2-17 DEB

Track METEOR 2-17 DEB now!
10-day predictions


NORAD ID: 31397
Int'l Code: 1988-005S
Perigee: 926.4 km
Apogee: 931.5 km
Inclination: 82.5 °
Period: 103.5 minutes
Semi major axis: 7299 km
RCS: 0.0107 m2 (small)
Launch date: January 30, 1988
Source: Commonwealth of Independent States (former USSR) (CIS)
Launch site: PLESETSK MISSILE AND SPACE COMPLEX (PKMTR)

Note: This is SATELLITE DEBRIS
aabbcc
Your satellite tracking list
Your tracking list is empty




NASA's NSSDC Master Catalog

Two Line Element Set (TLE):
1 31397U 88005S   19258.89918003 -.00000152 +00000-0 -13086-3 0  9998
2 31397 082.5390 108.7509 0003535 068.9214 348.2609 13.91947563646071
Source of the keplerian elements: AFSPC